SCP
0 0 0 0 0 0 0 0 0 0 0 0 0 0 0 0 0 0 0 0 0 0 0 0 0 0 0 1 1 1 1 1 1 1 1 1 1 1 1 1 1 1 1
0 0 0 0 0 0 0 0 0 0 0 0 0 0 0 0 0 0 0 0 0 0 0 0 0 0 0 0 0 1 1 1 1 1 1 1 1 1 1 1 1 1 1
0 0 0 0 0 0 0 0 0 0 0 0 0 0 0 0 0 0 0 0 0 0 0 0 0 0 0 0 0 0 0 0 1 1 1 1 1 1 1 1 1 1 1
0 0 0 0 0 0 0 0 0 0 0 0 0 0 0 0 0 0 0 0 0 0 0 0 0 0 0 0 0 0 0 0 0 1 1 1 1 1 1 0 1 1 1
0 0 0 0 0 0 0 0 0 0 0 0 0 0 0 0 0 0 0 0 0 0 0 0 0 0 0 0 0 0 0 0 0 0 0 0 1 0 0 0 0 0 1
0 0 0 0 0 0 0 0 0 0 0 0 0 0 0 0 0 0 0 0 0 0 0 0 0 0 0 0 0 0 0 0 0 0 0 0 0 0 0 0 0 0 0
0 0 0 0 0 0 0 0 0 0 0 0 0 0 0 0 0 0 0 0 0 0 0 0 0 0 0 0 0 0 0 0 0 0 0 0 0 0 0 0 0 0 0
0 0 0 0 0 0 0 0 0 0 0 0 0 0 0 0 0 0 0 0 0 0 0 0 0 0 0 0 0 0 0 0 0 0 0 0 0 0 0 0 0 0 0
0 0 0 0 0 0 0 0 0 0 0 0 0 0 0 0 0 0 0 0 0 0 0 0 0 0 0 0 0 0 0 0 0 0 0 0 0 0 0 0 0 0 0
0 0 0 0 0 0 0 0 0 0 0 0 0 0 0 0 0 0 0 0 0 0 0 0 0 0 0 0 0 0 0 0 0 0 0 0 0 0 0 0 0 0 0
0 0 0 0 0 0 0 0 0 0 0 0 0 0 0 0 0 0 0 0 0 0 0 0 0 0 0 0 0 0 0 0 0 0 0 0 0 0 0 0 0 0 0
0 0 0 0 0 0 0 0 0 0 0 0 0 0 0 0 0 0 0 0 0 0 0 0 0 0 0 0 0 0 0 0 0 0 0 0 0 0 0 0 0 0 0
0 0 0 0 0 0 0 0 0 0 0 0 0 0 0 0 0 0 0 0 0 0 0 0 0 0 0 0 0 0 0 0 0 0 0 0 0 0 0 0 0 0 0
0 0 0 0 0 0 0 0 0 0 0 0 0 0 0 0 0 0 0 0 0 0 0 0 0 0 0 0 0 0 0 0 0 0 0 0 0 0 0 0 0 0 0
0 0 0 0 0 0 0 0 0 0 0 0 0 0 0 0 0 0 0 0 0 0 0 0 0 0 0 0 0 0 0 0 0 0 0 0 0 0 0 0 0 0 0
0 0 0 0 0 0 0 0 0 0 0 0 0 0 0 0 0 0 0 0 0 0 0 0 0 0 0 0 0 0 0 0 0 0 0 0 0 0 0 0 0 0 0
0 0 0 0 0 0 0 0 0 0 0 0 0 0 0 0 0 0 0 0 0 0 0 0 0 0 0 0 0 0 0 0 0 0 0 0 0 0 0 0 0 0 0
0 0 0 0 0 0 0 0 0 0 0 0 0 0 0 0 0 0 0 0 0 0 0 0 0 0 0 0 0 0 0 0 0 0 0 0 0 0 0 0 0 0 0
0 0 0 0 0 0 0 0 0 0 0 0 0 0 0 0 0 0 0 0 0 0 0 0 0 0 0 0 0 0 0 0 0 0 0 0 0 0 0 0 0 0 0
0 0 0 0 0 0 0 0 0 0 0 0 0 0 0 0 0 0 0 0 0 0 0 0 0 0 0 0 0 0 0 0 0 0 0 0 0 0 0 0 0 0 0
0 0 0 0 0 0 0 0 0 0 0 0 0 0 0 0 0 0 0 0 0 0 0 0 0 0 0 0 0 0 0 0 0 0 0 0 0 0 0 0 0 0 0
0 0 0 0 0 0 0 0 0 0 0 0 0 0 0 0 0 0 0 0 0 0 0 0 0 0 0 0 0 0 0 0 0 0 0 0 0 0 0 0 0 0 0
0 0 0 0 0 0 0 0 0 0 0 0 0 0 0 0 0 0 0 0 0 0 0 0 0 0 0 0 0 0 0 0 0 0 0 0 0 0 0 0 0 0 0
0 0 0 0 0 0 0 0 0 0 0 0 0 0 0 0 0 0 0 0 0 0 0 0 0 0 0 0 0 0 0 0 0 0 0 0 0 0 0 0 0 0 0
0 0 0 0 0 0 0 0 0 0 0 0 0 0 0 0 0 0 0 0 0 0 0 0 0 0 0 0 0 0 0 0 0 0 0 0 0 0 0 0 0 0 0
0 0 0 0 0 0 0 0 0 0 0 0 0 0 0 0 0 0 0 0 0 0 0 0 0 0 0 0 0 0 0 0 0 0 0 0 0 0 0 0 0 0 0
Wind_Speed
8 8 7 6 6 5 4 3 3 3 1 1 1 0 0 0 0 0 1 2 3 3 3 4 3 4 4 4 6 6 7 7 5 7 8 9 11 11 10 10 10 12 13
7 7 6 6 5 5 4 3 2 2 1 2 2 2 2 2 1 2 1 3 3 4 4 4 5 4 4 5 6 6 6 6 5 5 6 6 8 9 11 9 10 11 10
7 6 6 5 4 4 2 2 2 1 2 2 1 1 2 3 2 2 1 2 4 4 5 5 6 5 6 5 5 6 7 7 6 6 5 5 6 5 7 9 9 9 9
6 5 5 4 3 3 2 1 1 1 1 2 3 4 4 5 4 4 3 4 4 5 5 5 5 6 6 5 7 6 6 7 7 5 6 6 5 5 5 6 8 9 9
6 5 4 3 2 2 1 1 1 1 1 2 3 4 5 5 4 4 4 5 4 4 5 5 5 6 6 6 7 6 7 7 7 6 6 7 6 8 7 7 6 7 8
5 4 3 3 2 1 1 2 2 1 1 2 3 4 5 5 6 6 6 6 5 4 5 6 5 6 7 6 7 7 8 8 7 7 6 6 6 6 7 8 8 7 6
5 5 4 4 3 2 2 1 1 1 2 2 3 3 4 5 6 7 6 7 6 5 5 6 6 7 6 7 7 8 8 9 8 8 7 7 7 7 7 8 7 7 6
5 5 4 4 3 3 2 1 1 1 2 3 3 4 5 5 5 5 7 7 7 7 7 7 8 8 8 9 7 8 9 8 8 10 9 7 8 7 7 7 7 7 7
5 5 5 4 4 3 2 1 1 2 2 3 4 4 5 5 6 7 7 6 6 7 7 8 9 9 9 9 9 8 9 8 9 10 9 9 8 7 7 7 7 7 8
6 6 5 4 3 2 1 0 1 2 3 4 5 4 5 5 6 7 7 7 8 8 9 9 9 9 9 9 9 9 9 9 9 8 9 8 8 7 7 7 7 7 8
7 6 5 4 3 2 1 1 2 2 3 4 5 6 6 6 6 6 7 7 8 8 9 9 9 9 10 9 9 10 10 10 10 10 10 10 10 8 7 7 7 7 7
6 6 5 4 2 1 1 2 3 3 4 4 5 6 6 6 7 7 7 8 8 9 9 9 10 10 10 10 10 11 11 11 11 11 11 11 9 10 9 8 8 7 7
6 5 4 3 2 1 2 3 4 4 5 5 6 6 7 7 7 8 8 8 9 9 9 9 10 10 10 10 10 11 11 11 11 11 11 11 10 10 9 9 9 8 7
6 5 3 2 1 2 3 4 4 4 5 6 7 7 7 8 8 8 8 9 9 9 9 9 10 10 10 11 11 11 11 11 11 11 11 11 11 11 10 9 10 9 8
6 4 3 2 2 2 3 3 4 5 6 6 7 8 8 8 8 9 9 9 9 10 9 10 10 10 10 9 9 10 11 11 11 11 11 12 11 10 9 9 9 9 8
5 4 3 2 2 3 3 4 4 5 6 7 8 8 8 8 9 9 9 9 9 9 9 10 10 10 8 3 4 9 12 12 12 11 11 11 12 13 13 13 12 11 10
4 3 3 2 2 3 3 4 5 5 6 7 8 8 8 9 9 10 10 10 9 9 9 9 10 10 9 4 6 9 11 12 12 11 11 10 10 9 12 13 15 15 15
4 3 3 2 2 2 2 4 5 5 6 7 8 8 8 9 10 10 10 10 9 9 9 9 9 10 8 4 7 8 12 12 12 12 12 12 12 11 9 11 12 13 14
3 3 2 2 2 2 3 4 5 6 7 8 8 9 9 10 10 10 10 10 9 9 9 9 9 10 9 5 6 8 10 10 12 12 12 12 12 9 7 11 12 13 12
4 3 3 3 2 2 3 5 6 7 7 8 9 9 9 9 10 10 10 9 9 9 10 9 9 9 9 4 4 7 9 9 9 9 9 10 11 8 7 11 12 13 12
5 4 4 3 2 2 3 5 6 7 8 8 9 9 9 9 9 9 9 9 9 9 10 10 9 8 7 6 5 6 8 9 9 8 8 5 7 8 9 11 12 11 9
6 5 4 3 3 3 4 6 6 7 7 8 9 9 9 9 8 8 9 9 9 9 9 8 8 7 5 5 3 5 8 10 10 9 8 4 2 6 9 10 9 8 8
6 5 5 4 4 4 5 6 6 6 7 8 9 9 9 8 8 8 9 8 7 7 7 7 7 7 6 3 6 8 9 10 9 7 7 7 6 8 9 12 11 10 10
6 6 6 5 4 4 5 5 6 6 7 8 9 8 8 8 7 7 7 7 7 7 7 7 7 7 7 6 5 5 5 7 8 7 7 9 10 10 9 7 9 10 9
6 6 6 5 5 4 5 5 5 5 7 8 8 8 8 7 7 7 6 7 7 6 7 8 8 8 8 7 8 8 8 7 6 7 6 5 5 6 6 6 7 7 8
5 6 6 6 5 5 5 5 4 5 7 7 7 7 7 6 7 7 7 5 7 6 8 10 9 8 7 10 10 9 9 9 8 7 6 5 5 6 6 6 6 7 7
Wind_Direction
100 102 105 109 108 105 111 107 88 82 60 56 8 23 47 322 308 317 353 312 310 307 294 292 281 276 271 271 263 255 250 249 251 255 253 247 239 239 237 233 235 232 232
123 121 121 123 119 111 108 110 103 81 41 45 352 339 336 312 332 322 330 308 309 300 288 303 289 278 275 261 263 261 268 262 243 249 257 253 238 227 231 229 230 235 232
138 138 139 135 130 124 122 97 71 58 27 355 305 307 261 259 258 289 287 323 315 306 312 306 299 296 276 269 268 264 261 268 260 240 246 253 252 253 229 228 231 232 233
153 153 153 150 149 143 136 115 81 45 3 300 312 310 309 312 328 316 327 316 303 306 304 297 293 290 287 286 272 265 270 263 265 246 239 254 281 270 258 233 226 226 231
170 168 169 164 161 156 141 119 97 48 4 331 325 303 308 314 314 313 306 296 291 289 294 297 296 289 282 285 287 287 274 267 264 265 256 249 249 249 260 262 251 238 233
176 175 166 160 148 133 118 113 107 74 24 340 334 323 323 319 314 308 307 293 288 283 288 293 294 286 285 282 275 275 266 266 270 268 263 258 254 251 251 258 255 251 246
179 171 166 158 143 122 98 91 87 35 1 342 339 332 324 305 295 300 304 300 299 295 304 305 299 293 289 281 276 269 271 266 261 258 257 255 255 258 260 263 267 265 263
172 163 154 146 131 118 107 91 57 5 344 336 335 324 313 303 310 317 309 302 301 305 314 299 291 290 288 282 275 269 260 258 260 261 262 263 256 254 250 254 263 265 260
162 157 151 144 135 126 106 64 1 325 321 318 311 302 310 312 313 305 287 294 301 296 298 294 289 286 285 283 280 270 269 264 258 258 250 251 257 251 254 252 253 259 260
164 160 156 152 149 146 143 247 306 314 312 307 308 316 310 303 300 296 306 302 297 294 292 288 287 284 281 277 275 273 263 261 259 260 266 263 259 254 251 250 249 251 257
170 167 163 158 172 186 192 273 293 295 309 316 315 312 307 306 300 293 295 297 296 296 289 287 285 283 280 277 274 273 275 266 263 260 255 253 259 258 254 248 246 247 250
168 167 167 175 199 237 289 303 305 309 316 318 311 310 310 307 306 306 305 301 296 292 289 286 284 281 279 277 274 271 271 268 264 260 259 257 254 250 254 254 251 248 250
172 172 177 196 225 278 308 318 310 317 320 320 312 314 313 314 310 308 305 302 299 295 291 286 283 282 282 279 275 273 269 267 265 263 259 257 256 255 252 251 252 249 242
180 188 190 207 237 276 299 311 316 321 318 315 312 316 314 314 311 308 305 303 300 296 294 291 287 284 281 278 276 274 269 266 264 261 259 257 255 254 255 253 251 253 252
190 195 205 213 245 271 287 305 311 316 314 309 310 313 313 311 308 308 305 304 300 297 297 293 289 285 279 277 289 288 276 269 264 260 255 252 253 263 265 265 261 253 248
198 199 208 230 257 273 289 303 306 312 307 305 309 313 310 308 309 307 305 302 299 299 296 292 290 288 287 332 310 288 282 276 270 265 259 255 243 238 234 243 257 264 260
198 204 219 239 257 269 289 296 306 305 302 303 306 308 308 308 310 308 306 304 303 300 296 293 292 292 291 275 266 267 276 273 269 267 263 258 254 240 244 231 227 237 242
200 201 218 228 244 262 277 291 298 297 298 302 307 310 310 309 309 306 304 304 302 300 297 295 293 291 290 265 262 266 265 266 267 264 260 258 260 253 252 254 246 241 233
190 194 207 217 235 270 286 290 292 297 299 306 311 313 313 310 308 306 307 307 304 300 297 295 293 292 290 261 254 268 278 268 267 265 261 258 256 246 234 250 253 252 247
181 186 191 207 221 251 271 281 291 299 306 312 313 312 309 306 305 305 304 304 301 296 297 299 295 292 292 282 250 263 278 279 277 271 262 247 245 251 231 246 249 249 245
179 181 197 218 230 245 263 276 290 301 310 311 309 307 307 304 300 301 299 299 298 299 298 300 296 289 287 277 243 249 276 288 287 283 277 265 203 224 233 244 253 256 260
186 190 201 220 224 234 255 272 287 302 306 305 304 306 307 305 308 304 301 299 299 296 295 297 298 293 286 277 259 242 257 278 283 283 284 290 223 234 238 240 248 251 252
192 200 210 220 227 229 247 271 290 300 301 301 303 306 305 301 300 301 302 300 299 301 306 309 310 311 316 296 222 236 246 250 263 279 293 289 271 258 243 234 235 232 231
199 204 217 229 238 240 251 268 285 294 294 296 302 302 299 301 308 305 303 308 312 314 314 314 316 317 317 322 326 303 267 242 247 262 262 246 244 246 257 235 214 225 229
202 209 220 232 243 243 251 265 275 282 288 294 298 300 300 305 302 301 304 305 311 318 305 313 315 316 315 342 344 315 309 313 321 310 282 270 259 246 238 235 230 225 221
198 211 225 239 246 245 251 260 267 271 281 289 296 302 304 307 304 306 304 261 259 254 244 254 277 296 292 303 303 297 285 283 285 282 270 268 259 254 249 244 236 229 224